Location: ?????
(38.3715°N, 23.0573°E)
Time: 10:04:27
(UTC+00:00)

Cosmos 2297 - Pass Details

Date: 03 August 2024
Orbit: 837 x 856 km, 71.0° (Epoch: 18 September)

Event Time Altitude Azimuth Distance (km) Brightness Sun altitude
Rises 18:20:24 0° 195° (SSW) 3,405 6.7 -8.7°
Reaches altitude 10° 18:22:51 10° 193° (SSW) 2,471 6.0 -9.1°
Maximum altitude 18:28:30 73° 110° (ESE) 887 3.7 -10.1°
Drops below altitude 10° 18:34:10 10° 26° (NNE) 2,475 6.2 -11.0°
Sets 18:36:37 0° 25° (NNE) 3,411 7.0 -11.4°
